This is the latest recevied weather packets stored in our database for station/object KD8OZS. If no packets are shown the sender has not sent any weather packets the latest 10 day(s).
| Time | Temp. | Humidity | Pressure | Rain* | Wind** | Luminosity | Snow |
|---|---|---|---|---|---|---|---|
| 1787530815 | 17.22° C | 91% | 1006 hPa | 0 mm | - | 0 W/m² | - |
| 1787530515 | 17.22° C | 90% | 1006.2 hPa | 0 mm | - | 1 W/m² | - |
| 1787530209 | 17.78° C | 89% | 1006.1 hPa | 0 mm | - | 3 W/m² | - |
| 1787529905 | 18.33° C | 87% | 1006.2 hPa | 0 mm | - | 6 W/m² | - |
| 1787529600 | 18.33° C | 86% | 1006.1 hPa | 0 mm | - | 9 W/m² | - |
| 1787529295 | 18.33° C | 85% | 1006.2 hPa | 0 mm | - | 11 W/m² | - |
| 1787528989 | 18.89° C | 85% | 1006.1 hPa | 0 mm | - | 15 W/m² | - |
| 1787528687 | 18.89° C | 82% | 1006.2 hPa | 0 mm | - | 23 W/m² | - |
| 1787528386 | 18.89° C | 84% | 1006.2 hPa | 0 mm | - | 32 W/m² | - |
| 1787528083 | 19.44° C | 82% | 1006.1 hPa | 0 mm | - | 26 W/m² | - |
| 1787527778 | 20° C | 79% | 1006.3 hPa | 0 mm | - | 28 W/m² | - |
| 1787527473 | 20° C | 80% | 1006.4 hPa | 0 mm | - | 34 W/m² | - |
| 1787527169 | 20.56° C | 78% | 1006.1 hPa | 0 mm | - | 46 W/m² | - |
| 1787526865 | 20.56° C | 77% | 1006.2 hPa | 0 mm | - | 55 W/m² | - |
| 1787526561 | 20° C | 75% | 1006 hPa | 0 mm | - | 62 W/m² | - |
| 1787526257 | 20.56° C | 75% | 1006.2 hPa | 0 mm | - | 28 W/m² | - |
| 1787525954 | 20.56° C | 74% | 1006.4 hPa | 0 mm | - | 38 W/m² | - |
| 1787525649 | 20.56° C | 75% | 1006.6 hPa | 0 mm | - | 20 W/m² | - |
| 1787525343 | 20.56° C | 74% | 1006.5 hPa | 0 mm | - | 16 W/m² | - |
| 1787525040 | 20.56° C | 77% | 1006.6 hPa | 0 mm | - | 17 W/m² | - |
| 1787524739 | 20.56° C | 77% | 1006.5 hPa | 0 mm | - | 26 W/m² | - |
| 1787524435 | 20.56° C | 81% | 1006.4 hPa | 0 mm | - | 46 W/m² | - |
| 1787524130 | 21.11° C | 81% | 1006.4 hPa | 0 mm | - | 72 W/m² | - |
| 1787523826 | 21.11° C | 81% | 1006.5 hPa | 0 mm | - | 58 W/m² | - |
| 1787523526 | 21.67° C | 78% | 1006.4 hPa | 0 mm | - | 93 W/m² | - |
* Rain latest hour (hover to see other rain measurements)
** Current wind speed in m/s (hover to see current wind gust speed)